TimeEST,TemperatureF,Dew PointF,Humidity,Sea Level PressureIn,VisibilityMPH,Wind Direction,Wind SpeedMPH,Gust SpeedMPH,PrecipitationIn,Events,Conditions,WindDirDegrees,DateUTC
12:52 AM,62.6,62.6,100,30.08,9.0,North,2.3,-,N/A,,Overcast,360,2014-02-04 05:52:00
12:58 AM,63.3,63.3,100,30.09,8.0,North,3.5,-,N/A,,Overcast,350,2014-02-04 05:58:00
1:14 AM,62.6,62.6,100,30.09,8.0,North,3.5,-,N/A,,Overcast,350,2014-02-04 06:14:00
1:18 AM,62.6,62.6,100,30.08,9.0,North,2.3,-,N/A,,Overcast,350,2014-02-04 06:18:00
1:22 AM,62.6,62.6,100,30.09,9.0,North,2.3,-,N/A,,Overcast,350,2014-02-04 06:22:00
1:24 AM,62.6,62.6,100,30.09,9.0,North,2.3,-,N/A,,Overcast,350,2014-02-04 06:24:00
1:30 AM,62.6,62.6,100,30.09,9.0,NNW,1.2,-,N/A,,Overcast,340,2014-02-04 06:30:00
1:34 AM,62.6,62.6,100,30.09,3.0,NW,1.2,-,N/A,,Overcast,310,2014-02-04 06:34:00
1:36 AM,62.6,62.6,100,30.09,1.8,Calm,Calm,-,N/A,,Overcast,0,2014-02-04 06:36:00
1:38 AM,62.6,62.6,100,30.09,1.5,Calm,Calm,-,N/A,,Overcast,0,2014-02-04 06:38:00
1:40 AM,62.6,62.6,100,30.09,1.0,Calm,Calm,-,N/A,,Overcast,0,2014-02-04 06:40:00
1:42 AM,62.6,62.6,100,30.09,1.0,Calm,Calm,-,N/A,,Overcast,0,2014-02-04 06:42:00
1:44 AM,62.6,62.6,100,30.09,1.0,Calm,Calm,-,N/A,,Overcast,0,2014-02-04 06:44:00
1:46 AM,62.6,62.6,100,30.09,1.2,Calm,Calm,-,N/A,,Overcast,0,2014-02-04 06:46:00
1:54 AM,62.6,62.6,100,30.09,1.5,Calm,Calm,-,N/A,,Overcast,0,2014-02-04 06:54:00
1:58 AM,62.6,62.6,100,30.09,2.5,Calm,Calm,-,N/A,,Overcast,0,2014-02-04 06:58:00
2:00 AM,62.6,62.6,100,30.09,5.0,East,1.2,-,N/A,,Overcast,80,2014-02-04 07:00:00
2:02 AM,62.6,62.6,100,30.09,8.0,Calm,Calm,-,N/A,,Overcast,0,2014-02-04 07:02:00
2:04 AM,62.6,62.6,100,30.09,8.0,Calm,Calm,-,N/A,,Overcast,0,2014-02-04 07:04:00
2:06 AM,62.6,62.6,100,30.09,6.0,East,1.2,-,N/A,,Overcast,100,2014-02-04 07:06:00
2:08 AM,62.6,62.6,100,30.09,5.0,East,2.3,-,N/A,,Overcast,100,2014-02-04 07:08:00
2:10 AM,62.6,62.6,100,30.09,4.0,ESE,2.3,-,N/A,,Overcast,110,2014-02-04 07:10:00
2:14 AM,62.6,62.6,100,30.09,4.0,Calm,Calm,-,N/A,,Overcast,0,2014-02-04 07:14:00
2:18 AM,62.6,62.6,100,30.09,6.0,Calm,Calm,-,N/A,,Overcast,0,2014-02-04 07:18:00
2:20 AM,62.6,62.6,100,30.09,6.0,Calm,Calm,-,N/A,,Overcast,0,2014-02-04 07:20:00
2:26 AM,62.6,62.6,100,30.09,7.0,West,2.3,-,N/A,,Overcast,260,2014-02-04 07:26:00
2:32 AM,62.6,62.6,100,30.09,9.0,Calm,Calm,-,N/A,,Overcast,0,2014-02-04 07:32:00
2:58 AM,63.1,63.1,100,30.09,10.0,SSE,3.5,-,N/A,,Overcast,150,2014-02-04 07:58:00
3:14 AM,64.4,64.4,100,30.09,10.0,South,2.3,-,N/A,,Overcast,190,2014-02-04 08:14:00
3:26 AM,64.4,64.4,100,30.09,10.0,SSW,2.3,-,N/A,,Overcast,200,2014-02-04 08:26:00
3:46 AM,64.4,64.4,100,30.09,10.0,Calm,Calm,-,N/A,,Overcast,0,2014-02-04 08:46:00
3:58 AM,64.0,64.0,100,30.09,10.0,Calm,Calm,-,N/A,,Overcast,0,2014-02-04 08:58:00
4:06 AM,64.4,64.4,100,30.09,6.0,Calm,Calm,-,N/A,,Overcast,0,2014-02-04 09:06:00
4:12 AM,64.4,64.4,100,30.09,7.0,ENE,2.3,-,N/A,,Overcast,60,2014-02-04 09:12:00
4:16 AM,64.4,64.4,100,30.09,10.0,Calm,Calm,-,N/A,,Overcast,0,2014-02-04 09:16:00
4:24 AM,64.4,64.4,100,30.08,9.0,NE,2.3,-,N/A,,Overcast,50,2014-02-04 09:24:00
4:50 AM,64.4,64.4,100,30.08,7.0,East,3.5,-,N/A,,Overcast,100,2014-02-04 09:50:00
4:58 AM,63.7,63.7,100,30.09,4.0,ESE,4.6,-,N/A,,Overcast,110,2014-02-04 09:58:00
5:02 AM,64.4,64.4,100,30.09,2.0,ESE,4.6,-,N/A,,Overcast,120,2014-02-04 10:02:00
5:04 AM,64.4,64.4,100,30.08,1.8,ESE,4.6,-,N/A,,Overcast,110,2014-02-04 10:04:00
5:08 AM,64.4,64.4,100,30.08,1.2,ESE,3.5,-,N/A,,Overcast,110,2014-02-04 10:08:00
5:12 AM,64.4,64.4,100,30.09,1.0,ESE,2.3,-,N/A,,Overcast,110,2014-02-04 10:12:00
5:14 AM,64.4,64.4,100,30.09,1.0,East,2.3,-,N/A,,Overcast,100,2014-02-04 10:14:00
5:16 AM,64.4,64.4,100,30.09,0.8,Calm,Calm,-,N/A,,Mist,0,2014-02-04 10:16:00
5:18 AM,64.4,64.4,100,30.09,0.5,Calm,Calm,-,N/A,Fog,Fog,0,2014-02-04 10:18:00
5:20 AM,64.4,64.4,100,30.09,0.5,Calm,Calm,-,N/A,Fog,Fog,0,2014-02-04 10:20:00
5:50 AM,64.4,64.4,100,30.09,0.8,Calm,Calm,-,N/A,,Mist,0,2014-02-04 10:50:00
5:54 AM,64.4,64.4,100,30.09,0.8,East,2.3,-,N/A,,Mist,90,2014-02-04 10:54:00
5:56 AM,64.4,64.4,100,30.09,0.5,East,2.3,-,N/A,Fog,Fog,90,2014-02-04 10:56:00
5:58 AM,64.4,64.4,100,30.09,0.5,East,2.3,-,N/A,Fog,Fog,90,2014-02-04 10:58:00
6:26 AM,64.4,64.4,100,30.10,0.8,East,2.3,-,N/A,,Mist,80,2014-02-04 11:26:00
6:28 AM,64.4,64.4,100,30.10,0.8,East,3.5,-,N/A,,Mist,80,2014-02-04 11:28:00
6:44 AM,64.4,64.4,100,30.10,0.8,East,2.3,-,N/A,,Mist,90,2014-02-04 11:44:00
6:46 AM,64.4,64.4,100,30.10,1.0,East,2.3,-,N/A,,Mist,90,2014-02-04 11:46:00
6:48 AM,64.4,64.4,100,30.10,1.0,East,2.3,-,N/A,,Overcast,90,2014-02-04 11:48:00
6:50 AM,64.4,64.4,100,30.10,1.0,East,1.2,-,N/A,,Overcast,90,2014-02-04 11:50:00
6:52 AM,64.4,64.4,100,30.10,1.0,ESE,1.2,-,N/A,,Overcast,110,2014-02-04 11:52:00
6:58 AM,64.4,64.4,100,30.12,1.0,ESE,2.3,-,N/A,,Overcast,120,2014-02-04 11:58:00
7:02 AM,64.4,64.4,100,30.10,1.2,ESE,2.3,-,N/A,,Overcast,120,2014-02-04 12:02:00
7:14 AM,64.4,64.4,100,30.11,1.0,East,3.5,-,N/A,,Overcast,100,2014-02-04 12:14:00
7:16 AM,64.4,64.4,100,30.11,0.8,East,3.5,-,N/A,,Overcast,100,2014-02-04 12:16:00
7:20 AM,64.4,64.4,100,30.11,0.5,ESE,2.3,-,N/A,Fog,Fog,110,2014-02-04 12:20:00
7:32 AM,64.4,64.4,100,30.11,0.8,Calm,Calm,-,N/A,,Overcast,0,2014-02-04 12:32:00
7:44 AM,64.4,64.4,100,30.11,0.8,East,3.5,-,N/A,,Overcast,100,2014-02-04 12:44:00
7:54 AM,64.4,64.4,100,30.11,1.0,East,3.5,-,N/A,,Overcast,100,2014-02-04 12:54:00
7:58 AM,64.4,64.4,100,30.13,1.0,East,2.3,-,N/A,,Overcast,90,2014-02-04 12:58:00
8:00 AM,64.4,64.4,100,30.12,0.8,East,3.5,-,N/A,,Overcast,80,2014-02-04 13:00:00
8:04 AM,64.4,64.4,100,30.12,0.8,East,2.3,-,N/A,,Overcast,90,2014-02-04 13:04:00
8:06 AM,64.4,64.4,100,30.12,0.5,East,3.5,-,N/A,Fog,Fog,80,2014-02-04 13:06:00
8:14 AM,64.4,64.4,100,30.12,0.5,East,3.5,-,N/A,Fog,Fog,100,2014-02-04 13:14:00
8:18 AM,64.4,64.4,100,30.12,0.5,East,3.5,-,N/A,Fog,Fog,90,2014-02-04 13:18:00
8:36 AM,64.4,64.4,100,30.12,0.5,East,3.5,-,N/A,Fog,Fog,90,2014-02-04 13:36:00
8:42 AM,64.4,64.4,100,30.12,0.8,East,5.8,-,N/A,,Mist,100,2014-02-04 13:42:00
8:44 AM,64.4,64.4,100,30.12,0.8,ESE,6.9,-,N/A,,Mist,110,2014-02-04 13:44:00
8:48 AM,64.4,64.4,100,30.13,0.8,East,4.6,-,N/A,,Overcast,90,2014-02-04 13:48:00
8:52 AM,64.4,64.4,100,30.13,0.8,East,6.9,-,N/A,,Overcast,90,2014-02-04 13:52:00
8:54 AM,64.4,64.4,100,30.13,1.0,East,5.8,-,N/A,,Overcast,90,2014-02-04 13:54:00
8:56 AM,64.4,64.4,100,30.13,1.0,East,6.9,-,N/A,,Overcast,90,2014-02-04 13:56:00
8:58 AM,64.8,64.8,100,30.14,1.0,East,5.8,-,N/A,,Overcast,90,2014-02-04 13:58:00
9:00 AM,64.4,64.4,100,30.13,1.2,East,5.8,-,N/A,,Overcast,100,2014-02-04 14:00:00
9:02 AM,64.4,64.4,100,30.13,1.5,ESE,5.8,-,N/A,,Overcast,110,2014-02-04 14:02:00
9:12 AM,64.4,64.4,100,30.13,2.0,East,5.8,-,N/A,,Overcast,80,2014-02-04 14:12:00
9:18 AM,64.4,64.4,100,30.13,3.0,East,5.8,-,N/A,,Overcast,80,2014-02-04 14:18:00
9:42 AM,64.4,64.4,100,30.14,8.0,East,5.8,-,N/A,,Overcast,80,2014-02-04 14:42:00
9:54 AM,66.2,66.2,100,30.14,3.0,East,5.8,-,N/A,,Overcast,90,2014-02-04 14:54:00
9:58 AM,65.3,65.3,100,30.14,3.0,East,3.5,-,N/A,,Overcast,90,2014-02-04 14:58:00
10:00 AM,66.2,66.2,100,30.14,3.0,East,4.6,-,N/A,,Overcast,90,2014-02-04 15:00:00
10:40 AM,66.2,66.2,100,30.15,10.0,ENE,5.8,-,N/A,,Overcast,70,2014-02-04 15:40:00
10:46 AM,66.2,66.2,100,30.14,10.0,ESE,5.8,-,N/A,,Overcast,110,2014-02-04 15:46:00
10:54 AM,68.0,68.0,100,30.14,10.0,Variable,4.6,-,N/A,,Overcast,0,2014-02-04 15:54:00
10:58 AM,67.5,67.5,100,30.14,10.0,Variable,4.6,-,N/A,,Overcast,0,2014-02-04 15:58:00
11:08 AM,68.0,68.0,100,30.14,10.0,East,5.8,-,N/A,,Overcast,80,2014-02-04 16:08:00
11:26 AM,69.8,66.2,88,30.13,10.0,Variable,2.3,-,N/A,,Overcast,0,2014-02-04 16:26:00
11:34 AM,69.8,66.2,88,30.12,10.0,East,6.9,-,N/A,,Overcast,90,2014-02-04 16:34:00
11:56 AM,71.6,66.2,83,30.11,10.0,East,8.1,-,N/A,,Mostly Cloudy,90,2014-02-04 16:56:00
11:58 AM,72.1,65.5,79,30.12,10.0,East,6.9,-,N/A,,Mostly Cloudy,90,2014-02-04 16:58:00
12:18 PM,73.4,64.4,73,30.10,10.0,Variable,3.5,-,N/A,,Mostly Cloudy,0,2014-02-04 17:18:00
12:50 PM,77.0,64.4,65,30.07,10.0,SSE,5.8,-,N/A,,Mostly Cloudy,150,2014-02-04 17:50:00
12:58 PM,77.0,64.9,66,30.08,10.0,Variable,2.3,-,N/A,,Partly Cloudy,0,2014-02-04 17:58:00
1:58 PM,81.5,62.1,52,30.02,10.0,SSE,10.4,-,N/A,,Scattered Clouds,160,2014-02-04 18:58:00
2:40 PM,82.4,60.8,48,30.00,10.0,SE,12.7,19.6,N/A,,Mostly Cloudy,130,2014-02-04 19:40:00
2:46 PM,82.4,60.8,48,30.00,10.0,SE,8.1,19.6,N/A,,Mostly Cloudy,140,2014-02-04 19:46:00
2:59 PM,82.2,61.2,49,30.01,10.0,SE,9.2,-,N/A,,Mostly Cloudy,130,2014-02-04 19:59:00
3:09 PM,82.4,60.8,48,30.00,10.0,SSE,10.4,-,N/A,,Mostly Cloudy,150,2014-02-04 20:09:00
3:36 PM,82.4,64.4,54,30.00,7.0,SE,8.1,-,N/A,,Light Drizzle,130,2014-02-04 20:36:00
3:45 PM,78.8,64.4,61,30.00,10.0,SE,6.9,-,N/A,,Partly Cloudy,130,2014-02-04 20:45:00
3:58 PM,79.7,63.3,57,30.01,10.0,SSE,10.4,-,0.00,,Partly Cloudy,150,2014-02-04 20:58:00
4:58 PM,77.2,63.5,63,30.01,10.0,SE,8.1,-,N/A,,Scattered Clouds,130,2014-02-04 21:58:00
5:58 PM,74.7,63.5,68,30.01,10.0,East,9.2,-,N/A,,Scattered Clouds,100,2014-02-04 22:58:00
6:58 PM,70.7,63.7,78,30.03,10.0,East,8.1,-,N/A,,Mostly Cloudy,90,2014-02-04 23:58:00
7:58 PM,68.7,63.7,84,30.05,10.0,East,8.1,-,N/A,,Overcast,90,2014-02-05 00:58:00
8:58 PM,66.6,63.5,90,30.06,10.0,ESE,4.6,-,N/A,,Mostly Cloudy,110,2014-02-05 01:58:00
9:58 PM,65.1,64.8,99,30.04,10.0,ESE,5.8,-,N/A,,Mostly Cloudy,110,2014-02-05 02:58:00
9:59 PM,64.4,64.4,100,30.04,10.0,ESE,5.8,-,N/A,,Overcast,110,2014-02-05 02:59:00
10:11 PM,64.4,64.4,100,30.03,10.0,ESE,6.9,-,N/A,,Overcast,110,2014-02-05 03:11:00
10:25 PM,64.4,64.4,100,30.03,10.0,ESE,6.9,-,N/A,,Overcast,110,2014-02-05 03:25:00
10:31 PM,64.4,64.4,100,30.03,9.0,ESE,4.6,-,N/A,,Overcast,120,2014-02-05 03:31:00
10:58 PM,64.4,64.0,99,30.04,8.0,ESE,5.8,-,N/A,,Overcast,110,2014-02-05 03:58:00
11:58 PM,64.4,64.4,100,30.02,7.0,ESE,5.8,-,N/A,,Overcast,120,2014-02-05 04:58:00